Regional Weather Roundup
Issued by NWS

Home | Current Version | Previous Version | Text Only | Print | Product List | Glossary Off
Versions: 1 2 3 4 5 6 7 8 9 10 11 12 13 14 15 16 17 18 19 20 21 22 23 24 25 26 27 28 29 30 31 32 33 34 35 36 37 38 39 40 41 42 43 44 45 46 47 48 49 50

000
ASUS43 KLOT 010912
RWRIL

ILLINOIS REGIONAL WEATHER ROUNDUP
NATIONAL WEATHER SERVICE CHICAGO/ROMEOVILLE IL
400 AM CDT WED JUL 01 2015

NOTE: "FAIR" INDICATES FEW OR NO CLOUDS BELOW 12,000 FEET WITH NO
SIGNIFICANT WEATHER AND/OR OBSTRUCTIONS TO VISIBILITY.

* THESE STATIONS ARE NOT UNDER NWS QUALITY CONTROL. THEY ALSO MAY NOT
  REPORT WEATHER SUCH AS PRECIPITATION OR FOG.

ILZ001-002-007-009-015-016-024-011000-
NORTHWEST ILLINOIS

CITY           SKY/WX    TMP DP  RH WIND       PRES   REMARKS
MOLINE         CLOUDY    67  60  78 NE3       29.90S
STERLING*      CLOUDY    63  61  94 E9        29.93R
SAVANNA*       MOCLDY    61  58  90 NE3       29.92F
$$

ILZ003-004-008-010-011-017-018-011000-
NORTH CENTRAL ILLINOIS

CITY           SKY/WX    TMP DP  RH WIND       PRES   REMARKS
ROCKFORD       MOCLDY    58  54  86 CALM      29.95S
FREEPORT*      PTCLDY    56  55  96 E6        29.96S
ROCHELLE*      PTCLDY    56  55  94 E3        29.94S
DE KALB*       PTCLDY    53  52  94 CALM      29.95S
PERU*          PTCLDY    60  58  91 E6        29.92F
$$

ILZ005-006-012>014-019>023-011000-
NORTHEAST ILLINOIS

CITY           SKY/WX    TMP DP  RH WIND       PRES   REMARKS
CHICAGO-OHARE  CLOUDY    56  51  84 NE6       29.94R
CHICAGO-MIDWAY CLOUDY    60  53  77 N7        29.93R
AURORA         PTCLDY    57  52  83 E3        29.94S
LANSING*       MOCLDY    58  52  78 NE7       29.93R
JOLIET*        PTCLDY    57  56  94 CALM      29.93F
WAUKEGAN       MOCLDY    51  50  96 N3          N/A
DUPAGE AIRPORT CLOUDY    57  51  80 NE5       29.93S
KANKAKEE*      PTCLDY    58  57  95 CALM      29.93S
WHEELING       CLOUDY    55  50  83 N6        29.96R
MORRIS*        PTCLDY    58  56  92 CALM      29.90S
ROMEOVILLE*    CLOUDY    58  53  84 NE6       29.93S
NORTHERLY ISL    N/A     56  52  86 N8          N/A
$$

LMZ740>746-011000-
SOUTHERN LAKE MICHIGAN

STATION/POSITION SKY/WX   TEMP    WIND        PRES    VSBY  WAVE
                          AIR SEA DIR/SP/G                  HT/PER
                          (F)     (DEG/KT/KT) (MB)    (MI)  (FT/S)
HARRISON CRIB              56      10/ 12/ 13   N/A
BURNHAM HARBOR             57     350/  5/ 10   N/A
CALUMET HARBOR             58      10/  6/  9   N/A
BURNS HARBOR               60     360/  8/ 10 1013.9S
MICHIGAN CITY              58     290/  8/ 10   N/A
MICHIGAN CITY 6N           59 65  360/ 10/ 12   N/A           3/ 5
ST. JOSEPH                 60 63                N/A           4/ 5
$$

ILZ025>027-034>036-040-047-049-050-058-095>099-011000-
WEST-CENTRAL ILLINOIS

CITY           SKY/WX    TMP DP  RH WIND       PRES   REMARKS
QUINCY         CLOUDY    70  68  93 SW6       29.87F FOG
GALESBURG*     CLOUDY    65  64  95 N3        29.89F
MACOMB*        MOCLDY    65  64  99 CALM      29.89F FOG
JACKSONVILLE*  CLOUDY    71  69  94 CALM      29.87F FOG
PITTSFIELD*    CLOUDY    71  68  90 CALM      29.88F
$$

ILZ028>032-037-038-041>044-048-051>054-059>061-011000-
CENTRAL ILLINOIS

CITY           SKY/WX    TMP DP  RH WIND       PRES   REMARKS
PONTIAC        MOCLDY    61  60  96 E5        29.93S
BLOOMINGTON    CLOUDY    64  63  97 E5        29.91F FOG
DECATUR        CLOUDY    67  63  87 CALM      29.89F
PEORIA         CLOUDY    69  63  81 E3        29.89F
LACON*         CLOUDY    63  60  91 SE3       29.90F FOG
LINCOLN*       CLOUDY    67  64  89 CALM      29.90S
SPRINGFIELD    CLOUDY    70  67  90 CALM      29.88F
TAYLORVILLE    CLOUDY    64  64 100 CALM      29.88F FOG
$$

ILZ033-039-045-046-055>057-062-063-011000-
EAST-CENTRAL ILLINOIS

CITY           SKY/WX    TMP DP  RH WIND       PRES   REMARKS
CHAMPAIGN      CLOUDY    65  63  93 NE5       29.90F FOG
DANVILLE*      MOCLDY    60  60  99 NE3       29.88F FOG
RANTOUL*       MOCLDY    64  62  93 NE3       29.91S FOG
MATTOON          N/A     66  64  93 CALM      29.89S FOG
PARIS*         CLOUDY    62  62  99 CALM      29.90F FOG
$$

ILZ079-100>102-011000-
SOUTHWEST ILLINOIS

CITY           SKY/WX    TMP DP  RH WIND       PRES   REMARKS
ALTON          RAIN      70  70 100 CALM      29.88F
BELLEVILLE     LGT RAIN  72  72 100 SW3       29.87F
CAHOKIA*       LGT RAIN  74  70  87 CALM      29.88F
SPARTA*        CLOUDY    73  70  91 CALM      29.91F
$$

ILZ064>066-069>071-074>076-080>082-084>086-088>090-092>094-011000-
SOUTH-CENTRAL ILLINOIS

CITY           SKY/WX    TMP DP  RH WIND       PRES   REMARKS
CARBONDALE     CLOUDY    72  69  90 CALM      29.89F
CAIRO*         CLOUDY    76  72  87 CALM      29.88F
EFFINGHAM*     CLOUDY    67  64  91 CALM      29.91F FOG
MARION         CLOUDY    73  70  88 CALM      29.90F
MT. VERNON     MOCLDY    66  63  88 CALM      29.89F
CENTRALIA*     CLOUDY    69  67  92 CALM      29.89F FOG
SALEM*         CLOUDY    71  68  91 CALM      29.90F FOG
METROPOLIS*    CLOUDY    71  71 100 CALM      29.90F
$$

ILZ067-068-072-073-078-083-087-091-011000-
SOUTHEAST ILLINOIS

CITY           SKY/WX    TMP DP  RH WIND       PRES   REMARKS
LAWRENCEVILLE  MOCLDY    68  67  96 CALM      29.89F FOG
FLORA*         MOCLDY    68  67  95 CALM      29.89F
FAIRFIELD*     MOCLDY    70  68  95 CALM      29.88S
HARRISBURG*    MOCLDY    69  69 100 CALM      29.90F
ROBINSON*      MOCLDY    64  64  97 CALM      29.90S FOG
CARMI*         MOCLDY    70  65  82 CALM      29.89S
$$

ABBREVIATIONS USED IN REMARKS
   TC - TEMPERATURE IN CELSIUS
  WCI - WIND CHILL INDEX
   HX - HEAT INDEX
  VSB - VISIBILITY
$$




USA.gov is the U.S. government's official web portal to all federal, state and local government web resources and services.